Location: Narrabri
(30.3170°S, 149.7830°E)
Time: 03:16:28
(UTC+11:00)

N. Korean satellite - Pass Details

Date: 15 October 2017
Orbit: 459 x 517 km, 97.2° (Epoch: 18 October)

Event Time Altitude Azimuth Distance (km) Brightness Sun altitude
Rises 19:30:19 0° 164° (SSE) 2,665 10.3 -4.9°
Reaches altitude 10° 19:32:28 10° 159° (SSE) 1,765 9.3 -5.4°
Maximum altitude 19:36:13 55° 81° (E) 622 6.8 -6.2°
Drops below altitude 10° 19:39:52 10° 1° (N) 1,718 9.2 -6.9°
Sets 19:41:57 0° 357° (N) 2,585 10.1 -7.4°
